Regional Weather Roundup
Issued by NWS

Home | Current Version | Previous Version | Graphics & Text | Print | Product List | Glossary Off
Versions: 1 2 3 4 5 6 7 8 9 10 11 12 13 14 15 16 17 18 19 20 21 22 23 24 25 26 27 28 29 30 31 32 33 34 35 36 37 38 39 40 41 42 43 44 45 46 47 48 49 50

000
ASUS43 KMKX 210811
RWRWI

WISCONSIN REGIONAL WEATHER ROUNDUP
NATIONAL WEATHER SERVICE MILWAUKEE/SULLIVAN WI
300 AM CDT MON MAY 21 2018

NOTE: "FAIR" INDICATES FEW OR NO CLOUDS BELOW 12,000 FEET WITH NO
SIGNIFICANT WEATHER AND/OR OBSTRUCTIONS TO VISIBILITY.

WIZ001-002-006>008-014>016-023>028-210900-
NORTHWEST WISCONSIN

CITY           SKY/WX    TMP DP  RH WIND       PRES   REMARKS
SUPERIOR ARPT  FAIR      33  33  99 CALM      30.17S
ASHLAND        FAIR      34  32  92 SW5       30.18S WCI  30
HAYWARD        FAIR      38  34  85 CALM      30.18S
SIREN            N/A     38  34  83 S5        30.16S WCI  35
CUMBERLAND     FAIR      45  36  70 CALM      30.17F
RICE LAKE      FAIR      43  40  90 CALM      30.19S
CHETEK         FAIR      43  40  89 CALM      30.18F
LADYSMITH      FAIR      42  37  81 E5        30.22R
EAU CLAIRE     FAIR      48  44  86 NE6       30.16F
MENOMONIE      CLOUDY    55  46  72 E6        30.17S
NEW RICHMOND   CLOUDY    53  42  65 E3        30.15S
OSCEOLA        MOCLDY    49  38  67 CALM      30.18S
$$

WIZ003>005-009-010-017-018-210900-
NORTH CENTRAL WISCONSIN

CITY           SKY/WX    TMP DP  RH WIND       PRES   REMARKS
MANITOWISH WTR FAIR      36  36 100 CALM      30.21S
ARBOR VITAE    FAIR      42  37  83 CALM      30.21S
WOODRUFF       FAIR      42  37  83 CALM      30.21S
RHINELANDER    FAIR      39  33  79 CALM      30.23R
EAGLE RIVER    FAIR      35  34  96 CALM      30.21S
LAND O LAKES   FAIR      35  34  97 CALM      30.23S
PHILLIPS       FAIR      37  34  86 CALM      30.21R
TOMAHAWK       FAIR      34  32  93 CALM      30.22R
MEDFORD        FAIR      38  34  87 E3        30.20S
MERRILL        FAIR      37  34  90 NE5       30.22S WCI  33
$$

WIZ029-030-035-036-043>047-210900-
CENTRAL WISCONSIN

CITY           SKY/WX    TMP DP  RH WIND       PRES   REMARKS
WAUSAU         FAIR      44  34  67 CALM      30.19S
MOSINEE        FAIR      46  32  57 NE3       30.21S
MARSHFIELD     FAIR      46  36  68 E6        30.18S
STEVENS POINT  NOT AVBL
WAUPACA        FAIR      42  39  88 CALM      30.20F
WAUTOMA        FAIR      42  40  92 CALM        N/A
WISC RAPIDS    MOCLDY    44  35  70 CALM      30.20S
CAMP DOUGLAS   FAIR      45  45  99 CALM      30.17S
$$

WIZ011>013-019>022-031-037>040-048>050-210900-
NORTHEAST WISCONSIN

CITY           SKY/WX    TMP DP  RH WIND       PRES   REMARKS
ANTIGO         FAIR      37  32  82 NE3       30.22R
SHAWANO        FAIR      42  38  87 CALM      30.21S
OCONTO         FAIR      35  34  96 CALM      30.22R
STURGEON BAY   FAIR      41  32  70 CALM      30.22S
GREEN BAY      FAIR      40  36  86 CALM      30.21S
MANITOWOC      FAIR      40  35  83 N5        30.21S
APPLETON       FAIR      45  27  49 NE5       30.18F
CLINTONVILLE   FAIR      42  36  78 NE3       30.21S
OSHKOSH        FAIR      48  35  60 E3        30.18F
$$

WIZ032>034-041-042-053>061-210900-
SOUTHWEST WISCONSIN

CITY           SKY/WX    TMP DP  RH WIND       PRES   REMARKS
LA CROSSE      CLOUDY    58  49  72 SE5       30.15S
SPARTA         CLOUDY    49  48  97 CALM      30.17F
VIROQUA        CLOUDY    52  51  97 E6        30.16S
BOSCOBEL       MOCLDY    55  49  80 CALM      30.15F
PRAIRIE DU CHI FAIR      56  48  76 SE3       30.13F
PLATTEVILLE    CLOUDY    52  48  86 E8        30.13F
$$

WIZ056-057-062-063-064-067-068-210900-
SOUTH CENTRAL WISCONSIN

CITY           SKY/WX    TMP DP  RH WIND       PRES   REMARKS
REEDSBURG      CLOUDY    51  46  81 NE5       30.16F
BARABOO/DELLS  CLOUDY    50  41  70 E5        30.17S
LONE ROCK      CLOUDY    53  47  79 E5        30.16S
MINERAL POINT  MOCLDY    52  45  76 E8        30.14F
MADISON        CLOUDY    51  40  65 E5        30.16S
MIDDLETON      CLOUDY    53  41  64 E5        30.17F
WATERTOWN      CLOUDY    47  43  85 NE6       30.16F
MONROE         CLOUDY    50  43  76 NE8       30.13F
JANESVILLE     FAIR      50  43  76 E3        30.15S
$$

WIZ051-052-058>065-066-070>072-210900-
SOUTHEAST WISCONSIN

CITY           SKY/WX    TMP DP  RH WIND       PRES   REMARKS
MILWAUKEE      MOCLDY    47  41  80 N5        30.17F
WAUKESHA       FAIR      43  36  75 CALM      30.18F
MILWAUKEE/TIMM FAIR      43  36  75 CALM      30.19F
RACINE         CLOUDY    45  41  86 N8        30.18F
BURLINGTON     MOCLDY    46  41  83 CALM      30.16F
KENOSHA        CLOUDY    46  41  82 CALM      30.17R
FOND DU LAC    FAIR      45  35  68 NE3       30.19S
SHEBOYGAN      FAIR      41  33  73 NE5       30.19S
WEST BEND      FAIR      41  39  93 CALM      30.19S
JUNEAU         FAIR      46  36  68 CALM      30.19S
$$

LSZ147-162-210900-
LAKE SUPERIOR

STATION/POSITION TIME  TEMP    WIND        PRES    WAVE
                       AIR SEA DIR/SP/G            HT/PER
                 (UTC) (F)     (DEG/KT/KT) (MB)    (FT/S)
W MID LAKE BUOY  0750   44 35  240/  2/  2 1022.2F   0
DEVILS ISLAND    0800   55      CALM  /  1 1021.8F
SAXON HARBOR     0740   40     190/  3/  4 1021.0S
$$

LMZ867-665-643>646-210900-
LAKE MICHIGAN

STATION/POSITION TIME  TEMP    WIND        PRES    WAVE
                       AIR SEA DIR/SP/G            HT/PER
                 (UTC) (F)     (DEG/KT/KT) (MB)    (FT/S)
NORTHPORT PIER   0740   43                 1023.4S
KEWAUNEE LAKESHO 0742   47      40/  5/  7 1022.3F
SHEBOYGAN LAKESH 0800   47      10/ 10/ 10 1022.7F
PORT WASHINGTON  0730   47     330/  2/  4 1023.0F
MILWAUKEE LAKESH 0750   47     360/  5/  5   N/A
KENOSHA   LAKESH 0800   46                 1021.7
$$

TC  - TEMPERATURE IN CELSIUS
VSB - VISIBILITY IN STATUTE MILES
WCI - WIND CHILL INDEX
HX  - HEAT INDEX





USA.gov is the U.S. government's official web portal to all federal, state and local government web resources and services.